This is the latest recevied weather packets stored in our database for station/object OE3PDB-3. If no packets are shown the sender has not sent any weather packets the latest 10 day(s).
| Time | Temp. | Humidity | Pressure | Rain* | Wind** | Luminosity | Snow |
|---|---|---|---|---|---|---|---|
| 1787524831 | 15.56° C | 59% | 1020.8 hPa | 0 mm | - | - | - |
| 1787524231 | 15.56° C | 58% | 1020.8 hPa | 0 mm | - | - | - |
| 1787523631 | 15.56° C | 58% | 1020.8 hPa | 0 mm | - | - | - |
| 1787523031 | 16.11° C | 58% | 1020.8 hPa | 0 mm | - | - | - |
| 1787522431 | 16.11° C | 57% | 1020.7 hPa | 0 mm | - | - | - |
| 1787521831 | 16.67° C | 56% | 1020.6 hPa | 0 mm | - | - | - |
| 1787521231 | 16.67° C | 56% | 1020.5 hPa | 0 mm | - | - | - |
| 1787520631 | 16.67° C | 55% | 1020.5 hPa | 0 mm | - | - | - |
| 1787520031 | 17.22° C | 55% | 1020.5 hPa | 0 mm | - | - | - |
| 1787519431 | 17.22° C | 55% | 1020.2 hPa | 0 mm | - | - | - |
| 1787518831 | 17.78° C | 54% | 1020.2 hPa | 0 mm | - | - | - |
| 1787518231 | 17.78° C | 54% | 1020.3 hPa | 0 mm | - | - | - |
| 1787517631 | 17.22° C | 54% | 1020.3 hPa | 0 mm | - | - | - |
| 1787517031 | 17.22° C | 55% | 1020.3 hPa | 0 mm | - | - | - |
| 1787516431 | 17.22° C | 55% | 1020.4 hPa | 0 mm | - | - | - |
| 1787515831 | 17.22° C | 54% | 1020.4 hPa | 0 mm | - | - | - |
| 1787515231 | 17.78° C | 53% | 1020.5 hPa | 0 mm | - | - | - |
| 1787514631 | 17.78° C | 53% | 1020.3 hPa | 0 mm | - | - | - |
| 1787514031 | 18.33° C | 52% | 1020.4 hPa | 0 mm | - | - | - |
| 1787513431 | 18.33° C | 51% | 1020.3 hPa | 0 mm | - | - | - |
| 1787512831 | 18.89° C | 50% | 1020.4 hPa | 0 mm | - | - | - |
| 1787512231 | 18.89° C | 49% | 1020.5 hPa | 0 mm | - | - | - |
| 1787511631 | 19.44° C | 49% | 1020.3 hPa | 0 mm | - | - | - |
| 1787511031 | 19.44° C | 48% | 1020.4 hPa | 0 mm | - | - | - |
| 1787510431 | 20° C | 47% | 1020.4 hPa | 0 mm | - | - | - |
* Rain latest hour (hover to see other rain measurements)
** Current wind speed in m/s (hover to see current wind gust speed)